[[{"header":{"parameterUnit":"m.s-1","parameterCategory":1,"la1":30.2991,"la2":30.254,"lo1":-89.0895,"lo2":-89.0444,"dy":0.0017,"dx":0.0017,"nx":28,"ny":28,"refTime":"2024-09-01T09:00:00:Z","depth":0,"parameterNumber":2,"parameterNumberName":"U-component_of_WINDS"},"data":[0,0,0,0,0,0,0,0,0,0,0,0,0,0,0,0,0,0,0,0,0,0,0,0,0,0,0,0,0,0,0,0,0,0,0,0,0,0,0,0,0,0,0,0,0,0,0,0,0,0,0,0,0,0,0,0,0,0,-1.383,-1.383,0,-1.385,-1.3851,-1.3851,-1.3839,-1.3838,-1.3837,-1.3837,-1.3855,-1.3856,-1.3857,0,0,0,0,0,0,0,0,0,0,0,0,0,-1.3777,-1.3778,-1.383,-1.383,-1.383,-1.385,-1.3851,-1.3851,-1.3839,-1.3838,-1.3837,-1.3837,-1.3855,-1.3856,-1.3857,0,0,0,0,0,0,0,0,0,0,0,0,0,-1.3799,-1.3779,-1.383,-1.3827,-1.3827,-1.385,-1.3851,-1.3851,-1.3839,-1.3838,-1.3837,-1.3836,-1.3854,-1.3856,-1.3857,-1.3884,0,0,-1.3862,-1.3863,0,0,0,0,0,0,0,0,-1.3798,-1.3801,-1.3827,-1.3827,-1.3827,-1.3841,-1.3839,-1.3862,-1.3839,-1.3834,-1.3837,-1.3836,-1.3851,-1.3853,-1.3858,-1.3885,-1.3886,-1.3862,-1.3863,-1.3864,-1.3864,0,0,0,0,0,0,0,-1.3796,-1.38,-1.3838,-1.3827,-1.3827,-1.3824,-1.3826,-1.3843,-1.3847,-1.3834,-1.3834,-1.3836,-1.3851,-1.3857,-1.3859,-1.3886,-1.3862,-1.3864,-1.3865,-1.3865,-1.3937,-1.3938,0,0,0,0,0,0,-1.3796,-1.3799,-1.3837,-1.3838,-1.381,-1.3825,-1.3828,-1.3837,-1.3847,-1.3848,-1.3837,-1.3836,-1.3855,-1.3857,-1.3859,-1.3892,-1.3864,-1.3865,-1.3866,-1.3936,-1.3937,-1.3938,0,0,0,0,0,0,-1.3794,-1.3799,-1.3836,-1.3819,-1.3823,-1.3827,-1.3838,-1.3838,-1.3844,-1.3849,-1.3849,-1.3843,-1.3854,-1.3857,-1.3879,-1.3892,-1.3866,-1.3867,-1.3935,-1.3936,-1.3938,-1.3956,0,0,0,0,0,0,-1.3793,-1.3799,-1.3809,-1.3819,-1.3824,-1.3856,-1.3839,-1.3839,-1.3847,-1.3846,-1.3854,-1.3855,-1.3854,-1.3876,-1.388,-1.3894,-1.3869,-1.3934,-1.3936,-1.3937,-1.3955,-1.3958,-1.3962,0,0,0,0,0,-1.3791,-1.3813,-1.381,-1.3815,-1.3837,-1.3857,-1.3859,-1.3858,-1.3849,-1.3859,-1.3862,-1.3855,-1.3891,-1.3879,-1.3883,-1.3897,-1.3933,-1.3935,-1.3937,-1.3953,-1.3958,-1.3961,0,0,0,0,0,0,-1.3803,-1.3814,-1.3811,-1.3836,-1.3846,-1.3854,-1.3867,-1.3863,-1.3875,-1.3872,-1.387,-1.3872,-1.3894,-1.3898,-1.3885,-1.3924,-1.391,-1.3913,-1.3921,-1.3925,-1.3928,-1.3926,-1.387,0,0,0,0,0,-1.3809,-1.3824,-1.3833,-1.3854,-1.386,-1.3863,-1.3871,-1.387,-1.3879,-1.3882,-1.3887,-1.3896,-1.3909,-1.3917,-1.393,-1.3956,-1.3957,-1.3968,-1.3971,-1.3974,-1.3976,-1.399,-1.3995,-1.3946,-1.3946,-1.3946,0,0,-1.382,-1.3828,-1.3838,-1.3857,-1.3864,-1.388,-1.3866,-1.3883,-1.3894,-1.3885,-1.3905,-1.3909,-1.3919,-1.3943,-1.3953,-1.3946,-1.3991,-1.3977,-1.3979,-1.398,-1.3993,-1.3998,-1.4002,-1.3947,-1.3947,-1.3947,0,0,-1.3849,-1.3857,-1.3876,-1.3884,-1.3896,-1.3899,-1.3903,-1.3913,-1.3916,-1.3937,-1.3931,-1.3944,-1.3967,-1.3974,-1.398,-1.4015,-1.4008,-1.4019,-1.4036,-1.405,-1.4054,-1.4057,-1.4069,-1.4073,-1.4021,-1.4021,-1.4021,0,-1.3861,-1.3885,-1.3886,-1.3904,-1.3913,-1.3907,-1.3926,-1.3934,-1.3948,-1.3954,-1.3947,-1.3976,-1.3982,-1.4008,-1.4016,-1.4022,-1.4027,-1.4017,-1.4054,-1.4057,-1.406,-1.4071,-1.4076,-1.4023,-1.4022,-1.4022,-1.4022,0,-1.39,-1.3917,-1.3931,-1.3947,-1.3957,-1.3975,-1.3979,-1.3989,-1.3988,-1.3991,-1.4013,-1.402,-1.4034,-1.4041,-1.4039,-1.4066,-1.4061,-1.4054,-1.4039,-1.4066,-1.4076,-1.408,-1.4024,-1.4024,-1.4023,-1.4023,0,0,-1.3934,-1.3952,-1.3957,-1.3965,-1.3979,-1.3991,-1.401,-1.4025,-1.4034,-1.4045,-1.4059,-1.408,-1.4074,-1.4081,-1.408,-1.4093,-1.4119,-1.4084,-1.4084,-1.4089,-1.4149,-1.4154,-1.4159,-1.4116,-1.4116,-1.4117,-1.4148,0,-1.3963,-1.3996,-1.3999,-1.4028,-1.4044,-1.404,-1.4056,-1.4066,-1.407,-1.4083,-1.4087,-1.4102,-1.4092,-1.4097,-1.4109,-1.4113,-1.4131,-1.4111,-1.4128,-1.4129,-1.4124,-1.4164,-1.4169,-1.4198,-1.4152,-1.4153,-1.4154,0,-1.4,-1.4014,-1.4046,-1.4059,-1.4066,-1.408,-1.4095,-1.4108,-1.4119,-1.4121,-1.4131,-1.4129,-1.4147,-1.4134,-1.4159,-1.4145,-1.4153,-1.4156,-1.4157,-1.4157,-1.4141,-1.4164,-1.4207,-1.4211,-1.416,-1.4159,-1.4159,0,-1.4021,-1.4048,-1.4071,-1.4078,-1.4093,-1.4104,-1.411,-1.4121,-1.4131,-1.4143,-1.4149,-1.4164,-1.4171,-1.4182,-1.4184,-1.4174,-1.4209,-1.4195,-1.421,-1.421,-1.4216,-1.4215,-1.4259,-1.4223,-1.4223,-1.4223,-1.4223,0,-1.4053,-1.4072,-1.4081,-1.4094,-1.4116,-1.4119,-1.414,-1.4146,-1.4156,-1.417,-1.4168,-1.4181,-1.4183,-1.4197,-1.4199,-1.4219,-1.4222,-1.4224,-1.4224,-1.4223,-1.4223,-1.4227,-1.4224,-1.4224,-1.4224,-1.4224,-1.4223,0,-1.4078,-1.4085,-1.411,-1.4124,-1.4128,-1.4143,-1.4154,-1.4167,-1.4172,-1.419,-1.4195,-1.4202,-1.4218,-1.4221,-1.424,-1.4241,-1.4265,-1.4263,-1.4261,-1.426,-1.4275,-1.4273,-1.4321,-1.4328,-1.4289,-1.4289,-1.4289,0,-1.4097,-1.4112,-1.4129,-1.4139,-1.4147,-1.4163,-1.4174,-1.4178,-1.4188,-1.4203,-1.4214,-1.4231,-1.4244,-1.427,-1.4276,-1.429,-1.4288,-1.4304,-1.429,-1.4289,-1.4287,-1.4286,-1.4287,-1.4306,-1.4307,-1.4307,-1.4307,0,-1.413,-1.4133,-1.4148,-1.4166,-1.4179,-1.4192,-1.4204,-1.4213,-1.4219,-1.4231,-1.4248,-1.4258,-1.4279,-1.4294,-1.4309,-1.4315,-1.4312,-1.4312,-1.4316,-1.4315,-1.4313,-1.4313,-1.4267,-1.431,-1.431,-1.431,-1.431,-1.431,-1.4152,-1.4165,-1.418,-1.4197,-1.4208,-1.422,-1.4234,-1.4241,-1.4256,-1.4274,-1.4275,-1.4294,-1.4306,-1.4326,-1.4333,-1.4347,-1.4342,-1.4348,-1.4349,-1.435,-1.4351,-1.4312,-1.435,-1.435,-1.435,-1.435,-1.4349,0,-1.4183,-1.4193,-1.421,-1.4229,-1.4243,-1.4241,-1.4255,-1.4266,-1.4284,-1.4296,-1.4309,-1.433,-1.4345,-1.4354,-1.4369,-1.4379,-1.4378,-1.4383,-1.4381,-1.4383,-1.4355,-1.435,-1.4384,-1.4384,-1.4384,-1.4383,-1.4383,-1.4383,-1.4201,-1.4224,-1.423,-1.4258,-1.4267,-1.4287,-1.4295,-1.4306,-1.4316,-1.4339,-1.4353,-1.4359,-1.437,-1.4386,-1.4401,-1.4403,-1.4408,-1.4414,-1.4415,-1.4388,-1.4385,-1.4381,-1.4376,-1.4415,-1.4415,-1.4441,-1.4441,-1.4441]},{"header":{"parameterUnit":"m.s-1","parameterCategory":1,"la1":30.2991,"la2":30.254,"lo1":-89.0895,"lo2":-89.0444,"dy":0.0017,"dx":0.0017,"nx":28,"ny":28,"refTime":"2024-09-01T09:00:00:Z","depth":0,"parameterNumber":3,"parameterNumberName":"V-component_of_WINDS"},"data":[0,0,0,0,0,0,0,0,0,0,0,0,0,0,0,0,0,0,0,0,0,0,0,0,0,0,0,0,0,0,0,0,0,0,0,0,0,0,0,0,0,0,0,0,0,0,0,0,0,0,0,0,0,0,0,0,0,0,-1.336,-1.336,0,-1.3353,-1.3353,-1.3353,-1.3319,-1.3318,-1.3317,-1.3316,-1.331,-1.331,-1.3311,0,0,0,0,0,0,0,0,0,0,0,0,0,-1.3342,-1.3343,-1.336,-1.336,-1.336,-1.3353,-1.3353,-1.3353,-1.3319,-1.3318,-1.3317,-1.3316,-1.3309,-1.331,-1.3311,0,0,0,0,0,0,0,0,0,0,0,0,0,-1.3344,-1.3343,-1.336,-1.3342,-1.334,-1.3353,-1.3353,-1.3353,-1.3319,-1.3318,-1.3317,-1.3316,-1.3309,-1.331,-1.3311,-1.3341,0,0,-1.3314,-1.3314,0,0,0,0,0,0,0,0,-1.3344,-1.3345,-1.3344,-1.3343,-1.3341,-1.3336,-1.3344,-1.3349,-1.3319,-1.3327,-1.3316,-1.3315,-1.3319,-1.3319,-1.3321,-1.3341,-1.334,-1.3314,-1.3314,-1.3315,-1.3315,0,0,0,0,0,0,0,-1.3344,-1.3345,-1.3357,-1.3344,-1.3342,-1.3334,-1.3333,-1.3345,-1.333,-1.3326,-1.3324,-1.3324,-1.3318,-1.332,-1.332,-1.334,-1.3314,-1.3314,-1.3315,-1.3315,-1.3386,-1.3387,0,0,0,0,0,0,-1.3346,-1.3345,-1.3357,-1.3357,-1.334,-1.3335,-1.3334,-1.3339,-1.333,-1.3327,-1.3325,-1.3322,-1.3319,-1.3319,-1.332,-1.3356,-1.3315,-1.3315,-1.3316,-1.3385,-1.3386,-1.3388,0,0,0,0,0,0,-1.3346,-1.3348,-1.3358,-1.335,-1.3351,-1.3337,-1.3342,-1.3339,-1.3341,-1.3329,-1.3326,-1.3329,-1.3318,-1.3319,-1.3336,-1.3355,-1.3316,-1.3317,-1.3383,-1.3385,-1.3387,-1.3428,0,0,0,0,0,0,-1.3346,-1.3348,-1.3359,-1.3351,-1.3351,-1.3374,-1.3343,-1.334,-1.3343,-1.3339,-1.3332,-1.333,-1.3317,-1.3335,-1.3337,-1.3356,-1.3317,-1.3381,-1.3384,-1.3386,-1.3425,-1.3431,-1.3436,0,0,0,0,0,-1.3345,-1.3371,-1.336,-1.3362,-1.3365,-1.3375,-1.3376,-1.3361,-1.3344,-1.3356,-1.3348,-1.333,-1.3352,-1.3337,-1.3339,-1.3358,-1.338,-1.3383,-1.3386,-1.3422,-1.343,-1.3436,0,0,0,0,0,0,-1.3381,-1.3369,-1.3357,-1.3381,-1.3379,-1.337,-1.3384,-1.3369,-1.3372,-1.3369,-1.335,-1.3348,-1.3369,-1.3365,-1.3349,-1.3388,-1.3363,-1.3367,-1.339,-1.3397,-1.3403,-1.3404,-1.3318,0,0,0,0,0,-1.3392,-1.3401,-1.339,-1.3412,-1.3412,-1.3398,-1.3402,-1.339,-1.3388,-1.3387,-1.3381,-1.3379,-1.3386,-1.3391,-1.3396,-1.3423,-1.3422,-1.3437,-1.3443,-1.3448,-1.3452,-1.3468,-1.3475,-1.3398,-1.3398,-1.3398,0,0,-1.3414,-1.3409,-1.3416,-1.3419,-1.3417,-1.3427,-1.3398,-1.341,-1.3417,-1.3389,-1.3406,-1.3401,-1.3398,-1.3421,-1.3431,-1.3418,-1.3473,-1.3452,-1.3456,-1.3457,-1.3471,-1.3479,-1.3485,-1.34,-1.3399,-1.3399,0,0,-1.346,-1.3456,-1.3475,-1.3474,-1.3471,-1.3461,-1.3466,-1.3458,-1.3454,-1.3471,-1.345,-1.3458,-1.347,-1.347,-1.3471,-1.3517,-1.3502,-1.3519,-1.355,-1.3566,-1.3572,-1.3577,-1.3596,-1.3602,-1.3523,-1.3523,-1.3523,0,-1.3489,-1.3504,-1.3486,-1.35,-1.3503,-1.3477,-1.3497,-1.3496,-1.3495,-1.3497,-1.3483,-1.3498,-1.3494,-1.3517,-1.3529,-1.353,-1.3535,-1.3521,-1.3572,-1.3578,-1.3582,-1.36,-1.3607,-1.3525,-1.3525,-1.3525,-1.3524,0,-1.3539,-1.355,-1.3565,-1.3566,-1.357,-1.3586,-1.3571,-1.3577,-1.3565,-1.3558,-1.3575,-1.357,-1.3574,-1.3578,-1.3566,-1.36,-1.3593,-1.3576,-1.3551,-1.3592,-1.3609,-1.3615,-1.3529,-1.3528,-1.3527,-1.3526,0,0,-1.3609,-1.36,-1.3606,-1.3607,-1.3602,-1.361,-1.3625,-1.363,-1.3636,-1.3636,-1.3649,-1.366,-1.3644,-1.3645,-1.3633,-1.3646,-1.3686,-1.3627,-1.3627,-1.364,-1.3725,-1.374,-1.3747,-1.3674,-1.3676,-1.3676,-1.3726,0,-1.3655,-1.3682,-1.3667,-1.3695,-1.3706,-1.3682,-1.3695,-1.3694,-1.3687,-1.3695,-1.3687,-1.3696,-1.3673,-1.3674,-1.3686,-1.3678,-1.3703,-1.3674,-1.3688,-1.3689,-1.3692,-1.3756,-1.3771,-1.3818,-1.3732,-1.3733,-1.3733,0,-1.3713,-1.3717,-1.3747,-1.3741,-1.3744,-1.3757,-1.3761,-1.3768,-1.3766,-1.376,-1.3762,-1.3746,-1.3761,-1.3736,-1.3757,-1.3738,-1.3742,-1.3739,-1.374,-1.3743,-1.3715,-1.3762,-1.3832,-1.384,-1.3743,-1.3742,-1.3741,0,-1.3764,-1.3776,-1.3796,-1.3796,-1.3789,-1.3799,-1.3796,-1.3793,-1.3797,-1.38,-1.3803,-1.3807,-1.381,-1.3814,-1.38,-1.3783,-1.3824,-1.3796,-1.382,-1.3821,-1.3832,-1.3832,-1.3906,-1.3831,-1.3831,-1.3831,-1.3831,0,-1.3819,-1.3838,-1.3819,-1.3831,-1.3853,-1.3835,-1.3857,-1.3852,-1.3849,-1.386,-1.3839,-1.385,-1.383,-1.3839,-1.3828,-1.3848,-1.3849,-1.3845,-1.3843,-1.3849,-1.3849,-1.3853,-1.385,-1.3833,-1.3832,-1.3832,-1.3832,0,-1.388,-1.3867,-1.3888,-1.388,-1.3878,-1.3895,-1.3887,-1.3899,-1.389,-1.3905,-1.3907,-1.3894,-1.3903,-1.3889,-1.3897,-1.389,-1.3918,-1.3909,-1.392,-1.3918,-1.3944,-1.3942,-1.4025,-1.4035,-1.3951,-1.3952,-1.3953,0,-1.3917,-1.3932,-1.3925,-1.3932,-1.3931,-1.3941,-1.3945,-1.3928,-1.3933,-1.3932,-1.3944,-1.3952,-1.3958,-1.3974,-1.3965,-1.3971,-1.3964,-1.3992,-1.3965,-1.3971,-1.3967,-1.3967,-1.397,-1.3999,-1.4,-1.4001,-1.4001,0,-1.3984,-1.3977,-1.3985,-1.399,-1.3996,-1.4,-1.4001,-1.4008,-1.3989,-1.3997,-1.4007,-1.4011,-1.402,-1.4028,-1.4032,-1.4029,-1.4013,-1.401,-1.4016,-1.4023,-1.403,-1.4029,-1.3938,-1.4008,-1.4008,-1.4007,-1.4007,-1.4006,-1.4036,-1.4049,-1.4047,-1.4056,-1.4055,-1.4058,-1.4069,-1.4061,-1.4069,-1.4076,-1.4064,-1.4078,-1.4075,-1.4079,-1.4078,-1.4089,-1.4076,-1.4085,-1.4087,-1.409,-1.4095,-1.4026,-1.4089,-1.4089,-1.4088,-1.4088,-1.4088,0,-1.4104,-1.4102,-1.411,-1.4114,-1.4121,-1.4104,-1.4106,-1.4113,-1.4125,-1.4125,-1.4131,-1.4143,-1.4151,-1.4143,-1.415,-1.416,-1.4152,-1.4162,-1.4162,-1.4163,-1.4105,-1.41,-1.4168,-1.4168,-1.4168,-1.4168,-1.4168,-1.4168,-1.4141,-1.4162,-1.4155,-1.4176,-1.4173,-1.4187,-1.4189,-1.4191,-1.4191,-1.4206,-1.4213,-1.4207,-1.4204,-1.421,-1.4217,-1.4214,-1.4219,-1.4232,-1.4227,-1.4174,-1.4166,-1.4159,-1.4154,-1.4233,-1.4233,-1.4284,-1.4285,-1.4285]}]]